Wind_Speed
30 30 31 32 33 34 34 36 36 36 35 35 35 35 35 35 34 34 34 34 34 34 34 34 35 35 35 35 36 36 38 41 43 45 47 47 48 49 50 50 49 51 50 50 49 50 51 50 50 51 51 52 53 53 54 57 60 61 62 61 62 65 68 71 74 76 78 80 82 84 88 91 96 99 100 99 97 94 91 88 86 84 82 81 79
32 32 32 33 33 34 35 36 37 37 37 37 37 36 37 37 36 36 36 36 37 37 37 37 37 37 37 37 37 38 38 40 42 44 45 47 48 49 50 51 50 51 52 50 49 52 55 54 54 54 55 57 57 57 57 59 62 62 61 61 63 68 71 73 75 77 79 81 83 84 86 89 92 96 100 102 101 99 96 93 90 88 86 84 83
34 35 35 35 35 36 36 37 37 38 38 38 38 38 38 39 38 38 38 39 39 39 39 39 39 40 40 40 40 39 40 41 42 43 45 46 48 49 50 50 51 51 53 53 52 53 55 57 58 57 58 60 61 61 61 61 63 64 64 65 67 69 71 74 77 79 80 82 84 85 86 88 90 92 96 101 103 103 101 98 95 93 90 87 86
37 37 37 37 37 37 38 38 39 39 39 40 40 40 41 41 40 40 40 41 41 42 42 42 42 43 43 43 42 42 41 42 42 44 45 46 48 50 50 50 51 52 54 54 55 56 56 58 60 60 61 62 63 63 62 63 65 66 67 68 69 70 72 74 78 81 84 85 87 87 88 89 90 91 93 97 101 104 105 104 100 97 94 92 89
40 39 39 39 39 39 39 40 41 41 41 41 42 42 42 42 42 42 43 43 43 44 44 44 45 45 46 46 45 44 43 43 44 45 46 47 48 50 50 51 51 53 55 57 58 60 60 60 61 63 63 63 64 64 63 63 65 67 69 71 71 72 74 76 78 80 84 86 88 89 89 89 90 90 91 94 97 101 104 107 106 103 99 96 93
42 42 42 42 41 41 41 42 42 43 43 43 43 44 44 44 45 45 45 45 46 46 47 47 47 48 49 49 48 48 47 47 48 48 49 50 51 52 53 54 55 56 58 60 61 62 63 63 64 65 65 65 66 66 66 65 66 67 70 72 72 74 76 78 80 81 83 85 87 89 91 92 93 92 91 92 94 97 101 105 107 108 106 102 98
44 44 45 44 44 44 44 44 45 45 45 45 45 46 46 46 47 47 47 48 48 49 49 49 50 50 51 51 51 51 51 51 52 53 53 54 55 56 57 58 59 60 61 62 63 65 65 66 67 67 67 68 68 69 68 68 68 69 70 71 73 76 77 78 79 82 85 88 90 91 93 95 96 97 96 95 94 94 96 100 104 107 109 108 104
45 46 46 47 47 47 47 47 47 47 47 47 48 48 48 49 49 49 49 50 50 50 51 51 52 53 53 54 54 54 55 55 56 56 57 58 59 60 61 62 62 62 63 64 65 66 67 68 69 70 70 71 71 72 71 71 70 71 72 73 74 76 76 76 76 79 83 88 91 92 94 95 97 98 99 99 98 97 95 96 99 103 107 110 109
47 48 48 49 49 49 50 50 50 50 49 50 50 51 51 51 51 51 51 51 52 52 53 54 54 55 56 56 57 57 58 58 59 60 61 61 62 63 64 65 65 65 66 67 68 69 70 71 72 73 74 75 75 75 74 74 73 73 74 75 76 77 77 77 76 77 79 83 88 91 93 96 98 100 101 102 102 102 100 97 96 97 101 106 110
51 51 51 51 51 51 52 52 53 53 52 52 52 53 54 54 54 54 54 54 54 55 55 55 56 57 58 58 59 60 60 61 62 63 64 65 65 66 67 68 68 69 70 71 72 74 75 76 77 78 79 80 80 79 78 77 77 77 77 77 78 78 78 77 77 77 78 79 83 87 90 94 98 102 103 104 103 103 104 102 99 97 96 100 105
54 54 55 55 54 54 54 54 54 55 55 55 55 56 56 57 57 57 57 57 57 57 57 58 59 60 61 61 61 62 62 63 65 66 67 68 69 70 71 72 72 73 74 76 77 79 80 81 83 84 86 86 85 84 82 81 81 80 80 80 80 79 79 78 78 78 78 79 80 82 86 91 96 101 104 104 103 103 104 105 105 102 98 96 99
57 57 58 58 57 57 57 57 57 57 57 57 57 58 58 59 59 59 60 60 60 60 60 61 61 62 63 63 63 64 65 66 68 69 70 71 72 74 74 75 76 77 79 80 82 84 85 87 88 89 89 89 88 88 87 85 84 83 83 82 81 80 80 79 78 78 78 79 79 80 83 88 93 99 103 106 106 105 105 106 108 106 103 99 96
58 59 59 59 60 60 61 61 61 60 59 59 59 60 60 61 61 62 62 62 62 62 63 64 64 65 66 66 66 66 68 69 71 72 73 74 76 77 78 79 80 81 83 84 86 88 90 91 91 91 91 90 90 90 90 89 87 86 85 84 83 81 80 80 79 78 78 78 78 78 81 85 90 96 101 105 108 108 107 107 108 108 107 104 99
59 60 60 61 62 63 64 64 64 63 62 62 62 62 63 63 64 64 65 65 65 65 66 67 67 68 69 70 69 69 70 72 74 74 76 78 79 80 82 83 84 85 86 88 90 91 93 93 92 91 91 91 92 93 93 92 91 89 88 86 84 82 81 80 80 79 78 78 78 78 79 82 87 93 98 103 106 108 109 108 108 109 109 109 105
60 60 62 63 64 65 66 66 65 64 64 64 64 64 65 66 67 68 68 69 69 69 69 70 70 71 72 73 74 73 73 74 76 78 79 81 82 84 85 86 87 89 90 92 93 93 93 93 93 93 93 94 95 95 95 95 94 92 90 88 86 84 82 81 80 79 78 78 79 78 78 80 84 89 95 100 104 107 109 109 110 110 111 111 110
61 62 63 65 66 67 67 66 65 65 65 66 66 67 68 69 70 71 72 72 72 72 72 73 73 74 74 75 77 78 77 77 79 81 83 85 86 87 89 90 91 92 94 95 95 95 94 94 95 96 97 97 97 97 97 97 97 95 93 91 89 86 84 82 80 79 78 77 78 79 78 78 81 86 91 97 102 106 107 109 110 111 112 112 112
63 64 64 65 66 66 66 66 66 66 67 67 68 69 70 71 72 73 74 74 75 75 75 75 76 77 78 78 80 81 82 83 84 85 87 89 90 91 91 92 93 94 95 96 96 96 97 97 98 99 99 100 100 100 100 99 99 98 97 95 93 90 86 84 81 79 78 77 77 78 78 77 79 83 88 93 99 103 106 107 108 110 112 113 112
64 64 65 66 66 67 67 67 67 68 69 69 70 70 71 72 73 74 76 77 77 78 78 78 79 79 81 82 83 85 86 87 88 89 90 91 92 92 93 93 94 95 96 96 97 98 99 99 100 101 102 102 102 102 101 101 100 100 99 98 96 94 90 87 83 80 78 77 77 78 77 76 77 80 85 90 94 99 104 105 106 108 110 112 113
65 65 66 67 68 68 69 69 70 70 71 71 72 72 73 74 75 76 78 79 80 81 81 82 82 83 84 85 86 87 88 89 90 91 92 92 93 94 94 94 94 96 97 97 98 99 100 101 102 103 104 104 104 104 103 102 101 100 100 99 98 96 94 90 85 81 78 76 77 77 76 75 75 77 81 86 91 95 99 103 104 106 108 110 113
66 67 68 68 69 69 70 70 71 72 73 73 74 75 75 76 77 78 79 80 82 83 84 85 86 86 87 88 88 89 90 90 91 91 92 92 94 96 96 96 96 97 98 99 100 100 101 102 104 105 106 106 106 105 104 103 101 101 100 100 99 97 95 92 87 83 79 76 75 74 73 72 72 74 77 81 86 90 94 98 101 103 105 108 111
66 67 68 68 69 71 72 73 73 74 75 76 76 77 77 78 79 80 81 82 83 85 86 87 88 89 89 90 90 91 91 92 92 93 93 93 94 95 97 98 99 100 101 102 102 102 103 104 105 106 107 108 108 107 106 104 103 102 101 100 99 97 96 93 89 85 81 77 74 72 70 69 69 70 73 76 81 85 89 93 97 100 103 106 109
66 67 68 69 71 73 75 76 76 77 78 78 78 79 80 81 82 83 84 85 86 88 89 90 91 92 92 93 93 93 94 94 95 95 95 95 94 94 96 97 99 101 103 104 103 103 104 105 106 107 107 108 108 107 106 105 104 102 100 99 98 97 95 93 91 87 82 76 72 70 68 66 66 67 69 72 76 81 85 89 93 97 101 104 107
69 69 70 71 72 74 76 76 77 78 78 79 79 80 82 83 85 86 87 89 90 91 93 94 94 95 96 96 97 97 97 97 97 97 97 97 97 96 97 97 97 99 101 103 104 104 105 105 105 105 105 106 106 105 105 104 103 101 99 98 97 96 95 94 91 88 83 77 71 68 66 65 65 65 67 70 73 78 83 86 89 93 97 101 105
72 71 71 72 73 76 77 77 78 79 79 80 81 82 83 84 86 87 89 91 92 93 94 95 96 97 98 98 99 99 99 99 99 100 100 100 100 99 99 99 98 98 99 100 101 103 104 105 105 103 103 104 105 104 103 103 102 100 99 98 97 96 95 94 92 89 84 78 73 69 66 65 65 65 66 69 72 76 80 84 86 89 93 98 102
75 74 73 72 74 77 78 79 80 81 82 83 83 84 85 86 87 89 90 92 93 94 95 96 96 97 98 99 99 100 100 100 100 101 102 102 102 101 101 101 100 99 99 99 99 100 102 104 104 104 105 105 105 104 103 102 101 100 98 97 97 96 96 95 93 90 86 80 75 71 68 67 66 66 67 69 71 75 78 81 84 87 89 94 99
81 81 78 76 76 77 79 80 81 83 84 85 86 87 88 89 91 92 93 94 95 96 98 98 98 97 98 98 99 100 100 101 101 102 103 103 104 103 102 102 102 101 100 100 100 101 101 102 103 105 106 107 106 105 103 101 100 100 98 97 97 97 96 95 93 91 87 83 78 74 72 69 69 68 68 69 71 74 77 80 83 86 89 92 96
86 86 85 82 80 80 82 83 83 84 86 87 88 89 90 91 93 95 97 99 99 100 101 101 101 100 99 99 100 101 101 101 102 103 104 104 105 105 104 104 103 103 102 102 102 102 102 102 103 104 105 106 106 104 102 101 100 100 99 98 98 98 97 96 93 91 88 85 81 78 75 73 71 70 70 70 72 74 77 80 83 86 89 91 94
88 89 89 88 86 85 85 86 86 87 88 89 90 90 91 93 94 96 98 101 102 103 104 104 104 103 102 101 101 101 101 102 102 103 104 105 106 106 106 105 104 103 103 103 103 104 105 106 104 103 103 102 102 101 100 99 99 99 99 99 99 99 99 97 94 91 89 86 84 82 79 77 75 73 72 72 73 74 77 80 83 85 88 92 94
90 91 92 92 92 91 90 89 89 90 91 91 91 93 94 96 97 98 100 101 103 104 105 106 106 106 105 103 102 102 102 102 103 104 105 106 107 107 108 108 107 106 105 103 102 103 106 108 105 102 101 100 98 97 97 98 98 98 98 98 99 100 100 99 96 93 91 88 86 84 83 81 79 76 74 73 73 74 75 78 81 84 87 91 93
92 93 93 93 95 95 95 94 94 94 94 94 95 96 98 99 100 101 102 103 104 106 107 108 108 107 106 104 103 102 102 103 103 105 106 107 108 108 109 109 109 109 107 105 102 101 104 106 105 101 99 97 95 94 95 96 96 97 97 97 98 99 99 99 97 95 93 90 88 87 86 85 82 79 76 74 73 73 74 75 78 81 85 89 92
94 94 94 95 96 97 99 99 99 99 99 99 100 100 101 102 103 104 104 105 106 108 109 109 109 107 106 105 103 103 102 103 103 104 106 107 108 108 109 110 111 111 109 106 103 101 102 103 101 98 95 93 92 93 93 94 95 96 97 97 98 99 98 98 97 96 95 93 91 91 90 88 86 83 79 75 73 72 72 73 75 78 81 85 89
96 97 96 97 97 99 101 102 103 103 102 102 102 103 104 104 105 105 105 105 107 109 110 110 109 108 106 105 104 103 102 102 102 103 104 106 107 108 109 111 113 113 111 108 104 102 102 101 97 94 92 89 89 90 91 92 94 95 96 97 98 99 98 98 98 97 96 95 94 94 93 91 89 86 82 78 74 73 73 74 74 76 78 81 86
98 99 100 101 101 101 102 103 104 104 104 103 104 105 106 107 108 107 107 107 109 110 111 111 110 108 106 105 104 102 102 101 101 102 103 105 106 108 110 112 114 114 111 108 105 101 100 99 94 89 89 88 88 89 90 91 93 95 96 98 99 100 99 99 98 98 97 96 96 95 94 92 91 88 85 81 78 76 76 76 76 76 77 78 82
100 101 103 104 103 102 103 105 106 107 106 106 107 107 108 109 110 109 109 109 110 111 112 111 109 107 105 104 103 102 101 101 101 102 103 105 107 108 111 113 114 114 112 108 104 99 95 94 93 89 87 87 88 89 90 91 93 95 96 98 100 100 100 99 98 97 97 97 96 96 96 95 94 92 88 85 83 81 80 79 78 77 77 78 80
103 103 104 105 105 105 106 108 109 109 109 109 109 109 110 111 111 110 110 110 111 111 110 109 107 106 105 104 103 102 101 101 102 103 104 106 108 109 111 113 114 113 111 107 103 98 91 88 90 89 87 87 88 90 91 92 93 95 97 99 101 101 99 99 98 98 98 97 97 98 99 100 98 96 93 89 87 85 83 81 80 79 78 79 81
109 108 107 108 109 110 111 110 110 111 112 112 112 111 111 111 111 110 110 110 110 109 108 107 105 104 104 103 102 102 102 102 103 105 106 107 108 110 111 112 112 111 108 104 100 96 91 86 86 88 87 86 87 90 92 92 94 98 100 101 102 101 101 100 100 100 100 100 100 101 103 104 103 99 95 92 90 88 86 83 81 81 81 82 84
114 113 111 111 112 113 113 112 112 113 114 114 113 113 112 112 111 110 110 109 108 107 106 105 104 104 104 103 103 103 103 104 104 105 106 107 108 110 111 110 110 107 105 101 96 93 90 86 84 85 86 85 86 90 93 94 96 99 101 102 102 102 102 102 103 103 102 102 102 104 107 108 107 102 98 95 92 88 84 82 81 81 83 85 87
117 116 115 115 115 115 116 115 115 115 115 115 115 114 112 110 108 107 106 106 106 106 106 105 104 104 104 103 103 103 103 104 105 106 107 107 107 108 108 107 105 103 101 98 95 92 89 86 84 84 84 85 86 89 94 96 98 99 101 101 102 103 103 103 104 104 104 104 104 106 108 110 109 104 101 98 93 88 84 83 83 84 86 89 92
118 118 118 118 118 119 119 118 117 116 116 116 115 112 108 105 103 102 102 103 104 104 104 104 104 103 103 103 103 103 104 104 105 106 106 106 106 105 105 103 100 98 97 95 94 92 89 86 84 83 83 84 87 90 93 96 98 99 100 99 98 100 102 103 104 105 105 105 106 108 110 111 110 106 102 98 91 86 83 83 84 85 89 93 96
118 118 119 119 119 119 119 118 118 117 116 115 112 108 105 103 101 100 100 100 101 101 102 102 102 103 103 103 103 103 104 104 105 105 104 104 103 102 100 98 96 96 95 94 93 91 89 86 84 84 84 85 88 90 93 95 97 98 99 99 97 97 99 100 102 105 106 106 107 108 108 109 108 103 96 89 84 81 80 80 81 83 88 93 97
118 118 119 118 118 119 119 119 118 116 114 112 109 106 103 101 100 100 100 100 99 100 100 101 101 102 102 102 103 104 104 104 103 101 100 99 98 97 96 94 94 94 93 93 92 91 89 86 85 85 85 87 89 91 92 94 96 95 96 97 97 97 98 97 97 103 109 109 106 105 104 103 102 95 86 80 79 79 79 78 79 82 86 92 97
114 114 115 115 116 117 117 117 115 113 111 109 106 103 101 100 100 100 100 100 100 99 100 100 101 101 101 102 103 103 102 101 98 97 96 95 94 94 93 92 92 93 93 93 92 91 89 87 87 87 87 88 90 91 92 93 94 94 94 95 96 97 98 97 94 98 107 111 106 100 99 101 99 89 79 75 77 78 77 77 78 80 85 92 98
109 110 110 111 112 113 113 113 112 111 109 106 103 101 100 100 100 100 100 100 100 99 99 100 100 100 101 101 101 100 98 96 94 93 92 92 93 92 92 92 92 93 93 93 93 92 90 89 88 89 88 88 89 91 92 92 92 92 93 94 95 96 98 97 95 95 103 111 108 99 96 100 99 87 76 74 77 77 76 75 77 80 85 92 99
107 108 109 109 110 111 111 111 111 109 106 103 100 100 100 100 100 100 100 100 99 99 99 99 99 100 100 100 98 96 94 93 92 91 91 92 93 93 92 92 92 93 93 94 93 92 90 89 89 89 89 89 88 90 91 92 92 91 92 93 95 97 98 98 98 97 102 110 110 100 91 94 97 86 74 73 76 75 74 74 76 79 85 92 98
110 110 110 109 109 109 110 110 108 106 103 101 100 100 101 101 101 102 101 100 99 99 99 99 100 100 98 96 95 93 93 92 91 91 92 92 93 92 92 92 93 93 94 94 94 92 90 90 89 88 89 89 88 88 90 92 92 90 91 91 93 97 99 100 101 100 103 109 111 100 87 86 93 85 72 73 75 72 71 74 75 78 83 91 97
116 114 112 111 111 111 111 110 107 105 105 104 104 104 103 104 104 104 103 101 100 100 100 100 99 98 96 94 93 93 93 93 92 93 93 92 92 91 91 92 92 93 93 93 93 92 91 90 88 87 88 89 88 87 88 91 92 92 91 91 92 95 98 99 100 101 103 107 107 98 81 77 86 82 71 71 74 69 70 74 76 77 82 88 94
119 119 118 117 117 118 116 113 110 110 110 110 108 107 106 106 106 105 104 103 102 101 101 100 98 97 95 94 94 94 94 94 93 94 94 92 91 90 90 91 91 91 91 91 91 91 90 90 88 86 86 87 88 87 87 89 91 92 93 92 92 95 97 98 98 100 103 105 105 97 79 70 79 80 70 70 72 67 68 73 75 78 82 86 91
121 122 122 123 123 122 119 116 115 115 114 112 110 108 108 107 107 107 106 105 104 103 102 100 98 97 96 96 95 96 95 95 94 95 94 91 90 89 88 89 89 88 89 89 89 88 88 87 86 85 84 84 85 85 86 87 89 92 93 92 93 97 98 97 96 97 100 101 102 98 80 68 75 76 67 68 70 65 67 72 75 78 81 85 89
120 121 122 124 124 123 120 117 117 116 114 113 111 110 109 108 107 108 107 105 104 102 101 100 100 100 99 98 97 96 96 95 95 94 93 91 88 87 87 87 87 86 86 86 86 86 86 85 84 83 83 83 82 83 84 87 90 93 95 94 96 99 99 96 94 92 93 95 97 94 79 68 72 73 64 64 67 64 66 71 74 78 81 83 86
116 118 120 121 122 121 119 117 117 116 115 113 112 111 110 109 108 108 106 104 103 102 101 102 102 102 101 99 98 97 96 95 94 93 92 90 88 86 86 85 85 84 84 83 83 83 83 83 83 83 82 81 81 81 83 87 90 94 97 98 99 100 97 94 90 86 85 89 92 89 76 65 69 72 65 60 62 64 67 71 75 79 80 81 82
113 115 116 118 119 119 118 116 116 115 114 113 112 112 111 110 109 107 105 103 102 102 102 103 103 102 101 100 98 97 96 95 94 92 90 89 86 85 84 83 82 82 81 80 81 81 81 81 81 81 80 79 80 80 81 85 89 93 98 102 102 100 95 91 88 82 80 84 89 85 74 65 66 71 66 57 58 65 69 72 76 78 78 77 78
Wind_Direction
263 264 265 266 267 268 268 268 269 270 271 272 271 271 269 269 268 269 270 272 272 273 274 274 274 272 268 266 263 259 254 251 250 248 248 249 249 250 250 249 249 248 250 253 251 251 253 252 255 258 256 259 262 261 264 262 259 259 260 261 261 261 262 262 263 263 262 260 258 255 251 249 248 247 247 247 246 245 243 242 241 240 240 240 241
268 269 270 270 270 270 270 270 270 271 272 273 273 273 272 271 271 271 271 273 274 275 276 277 277 276 273 270 267 265 261 256 256 254 253 254 253 253 254 254 253 252 255 258 257 255 254 256 262 261 258 258 260 264 265 261 258 259 259 260 260 259 259 260 260 261 261 261 260 258 255 252 249 248 247 246 246 246 245 243 242 241 240 240 240
270 271 272 273 273 273 273 272 272 272 272 273 274 274 273 273 273 273 273 274 275 276 277 278 279 279 277 275 271 269 266 263 261 260 258 260 258 258 260 259 258 259 261 263 265 263 260 262 265 266 265 262 264 266 263 261 260 259 258 258 258 259 259 259 258 258 259 260 260 259 258 255 252 249 248 247 246 245 245 244 243 242 241 240 240
269 271 272 274 274 274 274 273 273 272 272 273 273 273 272 272 273 273 274 275 276 277 278 279 280 281 280 278 276 273 271 270 268 266 265 265 264 264 266 265 265 266 268 268 270 269 269 268 268 270 271 268 268 266 265 265 263 261 260 258 258 258 258 258 257 257 257 259 260 261 260 258 256 253 250 248 247 246 245 245 244 242 242 241 240
268 270 273 274 275 275 274 274 273 273 272 273 272 272 271 271 272 273 274 275 276 278 279 280 281 281 281 281 280 278 276 276 274 273 272 272 272 271 272 271 271 273 274 275 275 274 274 274 273 274 274 272 270 269 270 268 265 265 262 258 258 258 257 257 257 257 256 256 257 259 260 260 258 257 254 251 249 247 246 245 244 243 242 241 240
269 270 273 276 276 276 275 274 273 272 272 272 272 272 271 271 272 273 274 275 277 278 279 281 281 282 282 282 282 281 280 280 279 279 279 278 278 278 277 276 276 277 278 279 279 279 278 278 277 277 276 276 274 272 271 270 269 267 263 261 260 258 258 258 257 257 256 255 254 255 257 258 259 259 258 256 253 250 248 246 245 244 243 241 241
270 270 272 275 277 277 276 274 273 272 272 271 271 271 271 271 272 273 274 276 277 279 280 281 282 283 283 283 283 283 283 283 283 282 282 282 281 281 281 280 279 280 281 281 282 282 282 281 281 280 280 279 278 276 273 272 271 269 266 264 262 260 259 258 258 257 257 256 255 255 255 257 258 259 259 259 258 255 251 248 246 244 243 242 241
270 270 271 273 276 277 276 275 274 273 272 272 272 272 272 272 272 273 275 276 278 280 281 282 283 284 284 285 285 285 285 285 284 284 284 283 283 283 284 283 283 283 283 284 285 285 285 285 284 284 283 282 282 280 277 275 273 271 269 267 265 263 261 260 260 259 258 257 256 255 255 255 255 256 257 258 259 259 256 252 249 246 244 243 241
269 269 270 272 274 276 276 276 275 274 273 272 272 272 273 273 273 275 276 277 279 280 281 283 284 284 285 285 285 285 285 285 285 285 284 285 285 285 285 285 286 286 287 287 288 289 289 288 288 287 287 286 286 284 281 279 277 275 272 270 268 265 263 262 261 261 260 259 258 256 255 254 254 254 255 256 257 258 258 256 253 249 246 244 242
269 269 270 272 273 275 275 276 275 274 274 273 273 273 273 274 274 276 277 278 279 279 281 282 283 284 284 284 285 284 284 285 285 285 285 285 285 286 286 287 288 289 289 290 291 291 291 291 291 290 290 289 288 287 284 282 280 278 276 274 271 268 266 264 262 262 262 261 260 258 255 254 253 253 254 254 254 254 255 256 255 253 250 246 244
270 271 272 273 275 276 277 277 276 275 274 273 273 273 273 274 274 275 276 278 278 279 280 281 282 283 283 283 284 284 284 284 284 285 285 285 286 286 287 288 289 290 291 291 292 292 292 293 293 292 292 291 290 289 287 285 283 281 279 277 274 271 268 266 264 263 263 262 261 259 256 254 252 252 252 252 251 251 252 254 255 255 254 250 246
271 272 273 275 278 279 280 280 279 277 275 274 273 274 274 274 275 275 277 278 278 278 279 280 281 282 282 283 284 284 284 284 284 285 285 285 286 287 288 289 289 290 291 292 292 293 293 293 293 293 292 292 291 290 289 287 285 284 282 279 277 274 271 268 266 265 264 263 262 260 257 254 252 251 251 250 250 249 250 251 253 254 255 253 249
273 274 276 278 280 282 283 283 283 280 278 276 275 275 275 275 276 276 277 278 278 278 279 280 281 282 282 283 284 285 285 284 285 285 285 286 286 287 288 289 289 290 291 291 292 292 292 292 292 292 292 292 291 290 290 289 287 286 284 281 279 276 273 270 267 266 265 264 263 261 259 255 253 251 250 250 249 249 248 248 250 251 253 254 252
275 277 278 279 281 282 283 284 283 282 280 279 278 277 277 277 277 278 279 279 278 278 279 281 281 282 283 284 285 285 285 285 285 285 285 286 287 287 287 288 289 290 290 290 291 291 292 292 292 292 292 292 291 291 290 290 289 287 285 283 281 278 275 272 269 267 266 264 263 261 260 257 253 251 250 250 249 248 247 247 247 248 250 252 253
277 278 278 279 281 282 282 283 282 281 280 280 279 279 278 278 279 280 280 280 280 280 281 282 283 283 284 284 286 286 286 285 285 285 286 286 286 286 287 288 288 289 289 290 291 291 291 292 292 292 292 292 292 291 291 290 290 289 287 285 282 279 275 272 270 268 266 264 262 261 260 258 255 252 250 250 249 248 247 246 246 246 247 249 251
277 277 278 279 280 281 281 281 281 280 280 280 280 280 279 280 280 281 281 281 281 282 282 283 283 284 284 284 285 286 286 285 284 285 285 285 285 286 287 287 288 288 289 290 291 291 291 291 291 291 291 291 291 291 291 291 291 290 289 287 284 281 277 273 270 268 267 264 262 261 260 258 255 253 250 249 249 248 247 245 245 244 245 247 249
276 276 277 278 279 280 280 280 280 280 281 281 281 281 281 281 281 282 282 282 282 283 283 283 283 284 284 284 284 285 285 285 285 285 285 285 286 286 287 287 288 289 290 290 291 291 291 291 291 290 290 291 291 291 291 291 291 291 290 289 286 283 279 275 271 269 267 265 262 260 259 258 256 253 251 249 249 249 248 246 244 243 244 245 246
276 277 278 279 280 280 280 280 281 282 282 282 282 282 282 282 282 282 282 282 283 283 283 283 283 284 284 284 284 284 285 285 285 286 286 286 286 286 287 288 288 289 289 289 290 290 290 289 289 289 289 290 290 290 290 291 291 290 290 289 287 285 282 278 274 270 268 265 262 260 259 258 256 254 251 249 249 248 248 246 244 243 242 243 244
278 278 279 280 280 280 280 280 281 281 281 282 282 282 282 282 282 282 282 282 283 283 283 283 283 283 283 283 283 284 284 285 285 286 286 286 286 287 287 287 288 288 288 288 288 288 288 288 288 288 289 289 289 290 290 290 290 290 290 289 287 285 283 280 276 273 269 266 263 261 260 258 256 254 251 249 248 248 248 247 245 243 242 242 242
278 278 279 280 280 280 279 279 280 280 280 280 280 281 281 281 281 282 282 282 282 282 282 282 283 283 283 283 283 284 284 284 284 285 285 285 286 287 287 287 287 287 287 287 287 287 287 287 288 288 288 289 289 290 290 291 291 290 289 288 287 285 284 281 278 275 271 267 265 262 261 259 257 254 252 249 248 247 247 246 246 244 242 241 241
278 278 278 279 280 280 279 279 279 279 279 279 280 280 280 281 281 281 281 281 281 282 282 282 282 282 282 282 283 283 283 283 283 284 284 284 284 285 286 287 287 287 287 286 286 287 287 287 287 288 288 289 290 291 291 292 291 290 289 288 287 285 284 282 279 276 272 269 266 264 261 259 257 254 251 249 247 245 245 245 245 244 243 241 240
276 276 277 278 279 279 279 279 278 278 278 279 279 279 279 279 279 280 280 280 280 280 281 281 281 281 281 282 282 282 282 282 282 282 282 282 282 282 283 284 286 286 286 286 286 286 286 286 287 287 287 288 289 290 291 290 290 289 288 288 286 285 284 282 280 277 274 270 267 265 262 260 258 254 251 248 245 244 243 242 243 243 243 242 241
273 274 276 278 279 279 280 280 280 280 280 281 281 280 280 279 279 279 279 279 279 279 279 279 280 280 281 281 281 281 281 281 281 281 281 281 281 281 281 282 283 283 284 284 285 285 285 286 286 286 287 287 288 289 289 288 288 287 287 286 286 284 283 282 280 278 276 273 269 266 263 261 258 254 251 248 245 243 241 240 241 242 242 242 241
274 274 275 278 280 281 281 282 282 283 283 283 283 283 283 282 282 281 280 280 280 279 279 279 280 280 280 281 281 281 281 281 281 281 281 281 281 281 281 281 281 281 281 282 283 285 285 286 286 287 287 287 288 288 287 287 287 286 286 285 284 283 282 281 280 279 278 275 272 268 265 262 259 256 251 248 245 242 240 239 239 239 241 242 242
278 278 277 278 280 282 283 283 284 285 285 286 286 286 286 286 286 285 284 283 283 282 281 281 281 281 281 281 281 281 282 281 281 281 282 282 282 282 281 282 282 282 281 282 282 283 284 285 286 286 287 288 288 287 287 286 286 285 285 284 283 282 281 280 280 279 278 277 275 271 267 264 261 257 253 249 246 243 241 239 238 238 238 240 241
284 284 283 282 282 283 284 284 285 286 287 287 288 289 289 289 288 288 287 286 285 284 283 283 282 282 282 282 282 282 282 282 282 282 282 282 283 282 282 283 283 283 283 283 283 284 284 284 285 286 287 288 287 287 286 286 286 285 285 284 283 281 280 280 279 279 279 278 276 273 270 267 263 259 255 251 247 244 242 240 238 237 237 237 239
287 287 286 285 284 283 284 285 285 286 286 287 288 288 288 288 288 288 288 287 287 286 286 285 285 285 284 284 283 283 283 283 283 283 283 283 283 283 283 283 284 284 284 285 285 284 284 283 284 285 286 287 286 286 286 286 286 285 285 284 283 282 280 280 279 279 279 279 277 275 272 270 266 262 257 253 249 246 243 241 239 238 237 236 237
286 287 287 287 285 284 284 284 285 286 286 287 287 287 287 287 287 287 288 288 288 288 288 288 287 287 286 286 286 285 285 285 284 284 284 284 284 284 284 284 284 284 284 285 285 285 285 284 284 285 285 285 284 284 284 284 284 284 283 283 282 281 281 280 280 279 279 278 278 277 275 273 270 266 261 256 251 247 244 242 240 239 238 236 236
285 286 287 287 287 286 285 285 285 286 286 286 286 286 286 287 287 287 288 288 288 288 288 288 288 288 287 287 287 286 286 285 285 284 284 285 285 285 285 285 285 285 284 284 284 285 286 286 286 286 285 283 282 281 282 282 282 282 281 280 280 280 280 280 280 280 280 279 278 278 277 275 272 268 264 258 253 249 246 244 241 240 239 237 236
283 284 285 286 287 286 286 286 286 286 286 286 285 285 286 286 287 287 288 288 288 288 288 288 288 287 287 287 287 286 286 285 285 285 285 285 285 285 286 286 286 286 286 286 286 286 286 286 287 287 285 283 281 281 281 281 281 280 279 278 278 279 279 280 281 281 280 280 279 279 278 276 274 270 265 261 256 252 249 246 244 241 240 238 237
282 282 283 284 285 285 285 285 285 285 285 285 284 285 285 286 286 287 287 287 287 287 287 287 287 287 286 286 286 286 286 285 285 285 285 285 286 286 287 287 287 288 289 289 289 288 286 286 287 286 284 282 281 281 281 280 280 279 278 278 278 279 279 280 280 280 280 280 280 279 278 277 274 271 267 263 259 254 251 249 247 244 242 240 237
280 280 281 281 282 283 283 284 284 284 284 284 285 285 285 285 286 286 287 287 287 286 286 286 287 286 286 286 286 286 286 285 285 286 286 286 286 287 287 288 288 289 291 292 292 290 288 286 286 285 283 281 280 280 279 279 279 278 278 278 278 278 279 279 279 280 280 280 279 278 277 276 275 273 270 266 262 258 255 253 251 248 246 242 239
280 279 279 279 280 281 282 283 283 283 284 285 285 285 285 285 285 285 285 286 286 285 285 285 286 286 285 285 285 285 285 285 285 286 286 286 286 287 287 288 288 290 291 292 292 291 289 287 286 284 281 281 280 279 279 278 278 277 277 277 278 278 278 278 278 279 279 278 278 277 277 276 276 274 272 269 266 264 260 257 254 251 248 246 242
279 278 277 277 278 280 281 281 282 282 283 284 285 285 284 283 284 284 284 284 284 284 284 285 285 285 285 285 285 285 285 285 285 285 285 286 286 286 287 288 289 290 291 292 292 291 289 286 285 283 282 281 280 280 279 278 277 277 277 277 277 278 278 279 279 278 278 278 278 278 278 278 276 275 273 272 270 268 264 260 256 252 249 247 245
277 277 276 276 276 278 279 279 279 280 281 282 283 283 282 282 283 283 283 283 283 283 284 285 285 285 285 285 285 285 285 285 285 285 285 285 286 286 287 287 288 290 291 291 291 290 288 285 283 283 283 282 281 280 279 278 277 277 277 277 278 279 279 280 280 279 279 280 280 279 279 278 277 275 274 273 272 270 267 263 259 254 250 248 246
277 277 276 275 275 276 277 278 278 279 279 280 282 283 282 282 283 283 282 282 282 283 284 285 285 285 285 285 285 285 285 285 285 285 285 286 286 286 286 287 288 289 289 290 289 289 287 285 284 283 282 281 281 280 278 278 277 277 277 278 278 279 280 281 281 280 280 280 280 279 278 277 276 275 275 274 273 271 268 264 261 257 253 249 246
276 277 276 276 275 275 276 276 277 278 278 279 280 281 280 281 281 281 281 281 281 282 283 285 285 285 285 285 284 284 284 285 285 285 285 285 285 285 286 287 287 288 289 289 288 288 286 285 284 282 282 281 279 278 277 276 276 276 277 278 279 279 280 280 280 280 279 278 277 276 276 276 276 276 276 275 273 271 268 265 262 260 256 252 247
275 275 275 276 275 275 275 275 276 277 277 277 279 279 279 279 280 280 280 281 281 282 283 284 284 285 284 284 284 284 285 285 286 286 286 285 285 285 285 286 287 287 287 288 288 287 285 284 282 281 280 280 278 276 276 276 275 275 275 276 277 278 278 278 277 277 277 277 275 274 274 275 276 276 276 275 273 270 268 266 263 261 258 254 249
273 273 274 275 274 274 274 274 275 276 276 277 278 278 278 279 280 281 282 283 283 283 284 284 284 284 284 285 285 285 286 287 288 287 286 286 285 285 285 285 286 286 286 286 286 285 284 283 281 280 279 278 277 275 275 275 275 276 275 275 274 275 276 276 276 275 275 275 274 273 273 273 274 275 274 273 271 268 266 264 260 257 255 252 249
273 273 274 274 274 274 274 274 275 275 275 276 277 278 279 280 281 282 284 284 284 285 285 285 285 285 285 286 287 287 288 288 288 287 286 285 284 284 284 284 285 285 285 285 285 285 284 283 282 280 279 278 277 275 275 275 275 276 277 276 274 273 273 274 275 275 274 273 272 272 273 274 274 274 273 271 270 268 265 261 258 254 251 249 248
273 274 274 275 274 274 274 274 274 275 275 276 277 278 280 281 282 284 285 285 286 286 286 286 286 287 287 288 289 289 289 288 287 286 285 284 283 283 283 283 283 284 285 285 285 284 284 283 282 280 279 278 277 277 277 277 277 277 277 277 276 275 274 274 274 275 275 274 273 273 274 276 276 276 274 273 272 269 266 261 257 253 249 247 245
273 274 274 274 274 274 274 274 274 275 276 277 279 280 281 282 284 285 286 287 287 288 288 288 288 289 290 290 290 289 289 288 287 286 285 284 284 283 283 284 284 285 285 285 285 285 284 284 283 281 280 280 279 279 279 279 279 279 278 277 277 276 276 276 276 276 277 277 277 278 278 278 279 278 276 275 272 269 264 260 256 252 248 246 244
273 273 274 274 274 274 274 275 275 277 278 280 281 282 283 284 285 286 287 288 289 289 290 290 291 291 291 291 291 290 289 288 287 286 286 285 285 285 285 285 285 285 286 285 285 285 286 285 284 283 282 281 281 281 281 281 280 280 279 279 278 278 277 277 277 276 277 278 279 280 281 280 280 279 278 276 272 266 261 257 253 249 246 244 243
276 276 276 276 276 277 277 277 278 279 280 281 282 283 285 286 287 288 289 290 290 290 291 292 293 293 292 291 291 290 289 288 287 287 286 286 286 286 286 286 286 286 286 285 285 285 286 285 284 283 283 282 282 282 282 281 281 280 280 279 279 278 278 277 276 275 274 276 278 280 281 281 281 280 278 274 269 263 259 254 250 247 245 243 242
280 280 280 279 279 279 279 279 279 280 282 283 285 286 287 289 289 290 290 291 291 292 293 293 293 293 292 291 290 290 289 288 287 287 287 287 287 287 287 286 286 286 286 286 286 286 286 285 284 284 283 283 282 281 281 280 279 278 277 276 276 276 276 275 275 274 273 274 276 278 280 281 281 280 277 272 266 261 258 254 248 245 244 243 242
283 283 283 283 283 282 282 282 283 284 286 287 288 288 289 290 290 291 291 291 292 292 293 293 293 292 292 291 290 290 289 288 288 288 288 288 288 287 287 287 286 286 286 286 287 287 287 286 285 284 283 283 283 281 281 280 279 278 276 275 274 274 274 274 275 275 275 276 278 280 281 281 281 279 276 271 266 260 258 255 248 244 242 243 242
284 284 284 285 285 285 285 285 286 287 288 289 289 289 289 290 290 291 291 291 292 293 293 293 292 292 291 291 290 290 289 289 289 288 288 288 288 287 287 287 287 287 287 287 288 288 288 287 287 286 286 285 285 284 283 281 280 279 278 277 276 275 275 276 276 278 279 280 282 284 283 282 280 278 275 271 266 260 257 254 249 244 241 241 242
281 282 282 283 283 284 285 286 287 287 288 288 288 289 289 289 290 290 291 292 292 293 293 292 292 292 291 291 291 290 290 290 289 288 288 288 288 288 287 287 288 288 288 288 288 288 288 288 288 288 287 286 286 285 284 282 281 280 279 278 278 277 277 278 277 278 280 281 283 284 284 283 280 276 273 271 266 261 257 253 248 244 241 240 241
278 279 280 280 281 282 284 285 285 286 287 287 288 288 289 289 290 290 291 291 292 292 292 292 292 292 291 291 291 290 290 290 289 288 288 288 288 288 288 288 288 289 289 289 289 289 289 289 288 288 287 286 285 284 284 283 281 280 279 279 278 277 278 279 279 280 280 282 283 284 284 284 280 276 271 268 266 263 258 253 247 244 241 240 241
277 277 278 279 280 282 283 284 285 285 286 287 288 288 289 289 289 290 290 290 291 291 291 292 292 292 291 291 291 291 290 290 289 289 288 288 289 289 289 289 289 289 289 289 289 289 290 290 289 289 288 287 286 285 284 283 283 282 282 281 280 280 281 282 283 283 284 285 285 284 284 283 280 276 270 265 265 264 258 252 248 245 242 241 241
277 277 277 278 280 281 282 283 284 285 286 286 287 288 288 288 289 289 289 290 290 291 291 292 291 291 291 291 291 291 291 291 290 290 290 290 290 290 290 290 290 290 290 290 290 290 290 290 290 289 289 288 287 286 285 284 284 284 284 283 283 284 285 286 287 288 288 289 288 286 286 284 279 275 270 263 264 265 259 251 248 247 244 243 242
Height
10777 10777 10777 10776 10776 10776 10776 10775 10775 10775 10775 10775 10774 10774 10774 10773 10773 10772 10772 10771 10771 10770 10770 10769 10768 10768 10768 10767 10766 10765 10765 10765 10765 10765 10764 10764 10764 10764 10763 10763 10764 10764 10764 10765 10765 10765 10764 10764 10764 10763 10763 10763 10763 10763 10763 10763 10762 10762 10762 10762 10761 10760 10759 10758 10756 10755 10755 10755 10755 10756 10758 10761 10764 10767 10770 10773 10775 10779 10782 10785 10787 10790 10793 10796 10798
10772 10772 10772 10772 10771 10772 10771 10771 10770 10770 10770 10770 10769 10769 10768 10767 10767 10766 10766 10765 10765 10764 10764 10763 10763 10762 10762 10761 10760 10759 10759 10759 10759 10758 10758 10757 10757 10757 10757 10757 10758 10758 10757 10758 10758 10758 10757 10756 10755 10755 10754 10754 10754 10753 10753 10753 10753 10753 10753 10753 10753 10752 10752 10750 10749 10747 10747 10746 10746 10747 10748 10751 10754 10757 10760 10763 10766 10769 10772 10776 10779 10781 10785 10788 10789
10767 10767 10766 10766 10766 10767 10767 10766 10766 10765 10765 10764 10764 10763 10762 10762 10761 10761 10760 10760 10759 10758 10758 10758 10757 10756 10755 10754 10754 10753 10752 10752 10752 10751 10750 10750 10750 10750 10750 10750 10751 10750 10750 10750 10750 10749 10749 10748 10746 10745 10745 10744 10744 10743 10743 10744 10744 10743 10743 10743 10743 10743 10743 10742 10741 10740 10739 10738 10738 10738 10739 10740 10743 10746 10749 10753 10756 10759 10762 10766 10770 10773 10777 10779 10781
10762 10762 10762 10761 10761 10762 10761 10761 10760 10760 10759 10759 10758 10757 10756 10756 10755 10755 10754 10754 10753 10752 10752 10751 10751 10749 10748 10748 10747 10746 10746 10745 10744 10743 10743 10743 10742 10743 10743 10743 10743 10742 10742 10741 10741 10740 10739 10739 10737 10736 10735 10734 10734 10733 10734 10734 10734 10734 10733 10733 10733 10733 10733 10733 10732 10731 10730 10729 10729 10729 10730 10731 10733 10736 10739 10742 10745 10749 10752 10756 10760 10764 10767 10770 10773
10757 10757 10757 10756 10756 10756 10756 10755 10755 10754 10754 10753 10752 10751 10750 10750 10749 10749 10749 10748 10747 10746 10745 10745 10744 10743 10742 10741 10740 10739 10739 10738 10737 10736 10735 10735 10735 10734 10734 10734 10734 10734 10733 10732 10731 10731 10730 10729 10728 10727 10725 10724 10724 10724 10724 10724 10723 10723 10723 10723 10723 10723 10722 10722 10722 10721 10720 10720 10720 10719 10720 10721 10724 10726 10728 10731 10734 10738 10741 10745 10749 10753 10757 10761 10765
10752 10752 10751 10751 10751 10750 10750 10749 10749 10748 10748 10747 10746 10745 10745 10744 10743 10743 10743 10742 10741 10740 10739 10738 10737 10736 10735 10734 10733 10732 10732 10731 10730 10728 10728 10727 10726 10726 10726 10725 10725 10725 10724 10723 10722 10721 10720 10719 10718 10717 10716 10715 10714 10714 10713 10713 10713 10712 10712 10712 10712 10711 10711 10711 10711 10711 10710 10711 10711 10711 10711 10712 10713 10716 10718 10720 10723 10726 10730 10733 10738 10742 10745 10750 10755
10746 10746 10745 10745 10745 10745 10744 10743 10742 10742 10741 10740 10740 10739 10738 10738 10737 10737 10736 10736 10735 10734 10732 10732 10731 10730 10728 10727 10726 10725 10725 10724 10722 10721 10720 10719 10718 10717 10717 10716 10716 10715 10715 10714 10713 10712 10711 10710 10708 10707 10706 10705 10704 10703 10703 10702 10701 10701 10701 10701 10700 10700 10700 10700 10700 10700 10700 10700 10701 10702 10702 10702 10703 10704 10706 10709 10711 10714 10718 10721 10726 10730 10734 10738 10743
10741 10740 10739 10739 10739 10738 10738 10737 10736 10735 10734 10734 10733 10732 10732 10731 10731 10731 10730 10730 10729 10727 10726 10725 10724 10723 10722 10721 10719 10718 10717 10716 10715 10713 10712 10710 10710 10709 10708 10707 10707 10707 10706 10705 10704 10703 10701 10700 10698 10697 10695 10694 10693 10692 10691 10691 10690 10690 10689 10689 10689 10688 10688 10689 10689 10689 10689 10689 10690 10692 10693 10693 10693 10693 10694 10696 10699 10702 10705 10708 10713 10718 10722 10726 10731
10735 10734 10733 10733 10733 10732 10731 10730 10729 10728 10728 10727 10726 10726 10725 10724 10724 10724 10724 10723 10722 10721 10719 10718 10717 10715 10714 10713 10712 10711 10710 10708 10707 10705 10703 10702 10701 10700 10699 10699 10698 10698 10697 10695 10694 10693 10691 10689 10688 10686 10684 10683 10681 10680 10679 10679 10679 10678 10677 10677 10676 10676 10676 10677 10677 10677 10677 10677 10678 10680 10682 10683 10682 10682 10682 10684 10687 10689 10692 10695 10699 10705 10710 10714 10718
10728 10727 10727 10726 10726 10726 10725 10724 10723 10722 10721 10721 10720 10719 10718 10718 10717 10716 10716 10716 10715 10714 10712 10711 10709 10707 10706 10706 10704 10703 10702 10700 10698 10696 10695 10694 10693 10691 10690 10689 10689 10688 10687 10685 10684 10682 10680 10679 10677 10675 10673 10671 10670 10669 10668 10667 10666 10665 10665 10664 10664 10664 10664 10665 10666 10666 10666 10666 10666 10667 10669 10671 10670 10669 10670 10672 10674 10676 10678 10681 10685 10690 10696 10702 10706
10721 10720 10719 10719 10719 10719 10718 10718 10717 10716 10715 10714 10713 10712 10711 10711 10710 10709 10708 10708 10707 10706 10705 10703 10702 10700 10698 10698 10697 10695 10694 10692 10690 10688 10687 10686 10684 10682 10681 10680 10680 10679 10678 10676 10674 10672 10670 10668 10667 10664 10662 10660 10658 10657 10656 10655 10654 10653 10652 10651 10651 10651 10652 10653 10654 10654 10654 10654 10655 10655 10656 10657 10657 10656 10656 10658 10661 10663 10665 10667 10671 10676 10681 10688 10694
10714 10713 10712 10712 10712 10711 10711 10710 10710 10709 10708 10707 10706 10705 10704 10703 10702 10702 10701 10701 10699 10698 10697 10695 10694 10692 10690 10689 10689 10688 10686 10684 10682 10681 10680 10677 10675 10674 10672 10671 10671 10669 10668 10666 10664 10662 10660 10658 10656 10654 10651 10648 10646 10644 10643 10642 10641 10640 10639 10638 10639 10639 10640 10641 10642 10642 10642 10642 10642 10642 10642 10643 10643 10643 10643 10644 10646 10649 10652 10654 10657 10661 10666 10672 10679
10707 10706 10705 10705 10704 10703 10703 10702 10702 10701 10700 10700 10699 10698 10697 10695 10695 10694 10693 10693 10692 10690 10688 10687 10685 10683 10681 10681 10681 10680 10679 10676 10674 10673 10672 10669 10667 10665 10664 10663 10662 10660 10658 10656 10654 10652 10649 10647 10645 10642 10640 10637 10634 10632 10630 10629 10628 10627 10627 10626 10626 10627 10628 10628 10629 10629 10630 10630 10629 10629 10629 10629 10629 10629 10629 10630 10632 10634 10638 10641 10643 10647 10651 10656 10664
10700 10699 10698 10698 10697 10696 10695 10694 10694 10693 10692 10692 10691 10690 10689 10688 10687 10686 10685 10684 10684 10683 10681 10679 10677 10675 10673 10671 10672 10673 10672 10669 10666 10665 10664 10661 10659 10657 10655 10654 10652 10651 10649 10646 10644 10642 10639 10636 10633 10631 10628 10625 10622 10620 10618 10616 10615 10614 10614 10613 10614 10614 10615 10615 10616 10616 10617 10617 10616 10616 10615 10615 10615 10616 10615 10615 10617 10620 10623 10626 10630 10633 10637 10641 10647
10693 10692 10691 10690 10689 10688 10688 10687 10686 10685 10684 10683 10683 10682 10681 10679 10678 10678 10677 10676 10676 10676 10675 10673 10671 10669 10666 10663 10662 10664 10665 10662 10658 10656 10655 10652 10650 10648 10646 10645 10643 10640 10638 10636 10634 10631 10628 10625 10622 10619 10616 10613 10610 10608 10606 10604 10602 10601 10600 10600 10600 10601 10601 10602 10602 10603 10603 10603 10603 10603 10602 10601 10601 10602 10602 10602 10602 10605 10608 10612 10616 10619 10623 10627 10631
10686 10685 10684 10683 10682 10681 10680 10679 10679 10678 10677 10676 10675 10674 10673 10671 10670 10669 10668 10667 10667 10667 10668 10667 10664 10662 10660 10658 10654 10653 10655 10655 10651 10649 10647 10643 10640 10639 10637 10635 10633 10630 10627 10625 10622 10619 10616 10613 10610 10607 10603 10600 10598 10596 10594 10592 10590 10589 10588 10587 10586 10586 10587 10587 10589 10589 10589 10589 10589 10589 10589 10588 10588 10588 10589 10589 10589 10590 10593 10598 10601 10605 10609 10613 10618
10679 10678 10677 10676 10675 10674 10673 10672 10671 10670 10669 10668 10667 10666 10665 10663 10662 10660 10659 10658 10658 10658 10658 10658 10657 10655 10653 10651 10648 10645 10644 10644 10643 10641 10638 10635 10631 10629 10628 10625 10622 10618 10615 10613 10609 10606 10603 10600 10597 10594 10591 10588 10586 10584 10582 10580 10579 10577 10575 10573 10572 10572 10572 10572 10574 10574 10574 10575 10575 10575 10576 10576 10575 10575 10575 10576 10576 10576 10579 10583 10588 10592 10596 10600 10604
10672 10671 10670 10669 10668 10667 10666 10665 10664 10662 10661 10660 10659 10658 10657 10655 10653 10651 10650 10648 10648 10648 10648 10648 10648 10647 10645 10643 10641 10638 10635 10633 10633 10630 10627 10625 10622 10620 10618 10616 10613 10609 10605 10602 10598 10595 10591 10588 10584 10581 10578 10576 10574 10572 10570 10568 10566 10564 10562 10560 10559 10558 10557 10557 10558 10559 10560 10561 10561 10562 10563 10563 10563 10562 10562 10562 10563 10564 10565 10569 10573 10578 10582 10586 10591
10665 10664 10663 10662 10661 10659 10658 10657 10656 10655 10653 10652 10651 10650 10649 10647 10645 10643 10641 10639 10638 10637 10637 10638 10638 10637 10635 10633 10631 10630 10627 10624 10623 10621 10616 10612 10610 10610 10609 10607 10603 10599 10594 10591 10588 10584 10579 10575 10572 10568 10565 10563 10561 10559 10558 10556 10553 10551 10549 10546 10544 10543 10542 10542 10543 10544 10545 10546 10547 10548 10549 10550 10550 10550 10549 10550 10550 10551 10553 10555 10560 10564 10568 10572 10576
10657 10656 10655 10654 10653 10652 10651 10649 10648 10647 10645 10644 10643 10642 10640 10638 10636 10634 10632 10630 10629 10627 10627 10626 10627 10626 10625 10623 10621 10619 10617 10615 10613 10611 10609 10603 10597 10595 10596 10596 10593 10587 10583 10579 10576 10573 10568 10562 10559 10555 10551 10548 10547 10545 10544 10541 10539 10537 10534 10531 10529 10528 10527 10527 10528 10529 10530 10531 10532 10534 10536 10536 10537 10537 10537 10538 10539 10540 10541 10542 10546 10550 10554 10558 10562
10649 10648 10647 10646 10644 10643 10641 10640 10639 10638 10636 10635 10634 10633 10631 10629 10626 10624 10622 10621 10619 10617 10616 10615 10615 10614 10613 10612 10610 10608 10607 10605 10603 10601 10599 10597 10591 10584 10581 10581 10579 10573 10569 10568 10565 10560 10555 10550 10546 10541 10538 10535 10531 10530 10529 10527 10524 10521 10519 10517 10515 10513 10512 10512 10512 10513 10514 10516 10518 10519 10521 10522 10523 10523 10524 10525 10526 10527 10529 10530 10532 10536 10540 10544 10548
10641 10639 10638 10637 10635 10633 10631 10630 10629 10628 10626 10625 10624 10622 10621 10619 10617 10614 10612 10610 10609 10606 10605 10604 10603 10602 10601 10599 10598 10597 10595 10593 10592 10591 10589 10588 10586 10580 10573 10571 10569 10560 10552 10551 10552 10548 10542 10537 10534 10530 10526 10522 10520 10518 10516 10513 10510 10507 10505 10503 10501 10499 10498 10497 10496 10497 10498 10501 10503 10505 10506 10507 10508 10509 10511 10511 10513 10514 10516 10518 10519 10522 10526 10530 10534
10633 10631 10630 10628 10626 10623 10621 10620 10619 10617 10615 10614 10612 10611 10609 10608 10606 10604 10602 10600 10598 10595 10593 10592 10590 10589 10588 10586 10584 10583 10583 10581 10579 10578 10577 10576 10576 10573 10568 10565 10564 10556 10544 10538 10536 10532 10527 10522 10520 10517 10512 10508 10507 10507 10504 10500 10497 10495 10493 10490 10487 10485 10483 10482 10482 10481 10483 10485 10488 10490 10492 10493 10494 10495 10497 10498 10500 10502 10503 10505 10507 10510 10513 10517 10521
10623 10623 10622 10620 10616 10613 10611 10610 10608 10606 10604 10602 10600 10599 10597 10595 10593 10592 10590 10588 10586 10583 10581 10580 10577 10576 10574 10572 10571 10569 10569 10567 10565 10564 10563 10563 10562 10562 10558 10555 10555 10549 10540 10533 10527 10520 10513 10507 10504 10501 10497 10494 10493 10491 10489 10485 10483 10481 10480 10477 10474 10472 10470 10469 10468 10467 10468 10471 10473 10476 10478 10479 10480 10482 10483 10485 10486 10488 10490 10493 10496 10499 10501 10504 10507
10611 10611 10613 10612 10609 10604 10601 10600 10598 10595 10593 10591 10588 10586 10584 10582 10581 10579 10576 10574 10573 10570 10568 10566 10564 10563 10561 10559 10557 10556 10555 10553 10550 10548 10547 10546 10546 10547 10544 10541 10541 10537 10528 10523 10520 10513 10503 10495 10491 10487 10483 10481 10479 10476 10472 10470 10469 10466 10465 10464 10461 10458 10457 10455 10455 10454 10455 10457 10459 10461 10464 10465 10466 10468 10469 10471 10473 10474 10477 10481 10484 10487 10489 10491 10494
10597 10597 10599 10601 10599 10596 10592 10589 10587 10584 10582 10579 10577 10574 10572 10570 10568 10565 10563 10560 10558 10556 10554 10552 10551 10549 10547 10545 10543 10541 10540 10538 10535 10533 10531 10529 10528 10528 10528 10525 10524 10522 10515 10510 10506 10502 10494 10485 10480 10476 10471 10468 10465 10462 10459 10456 10453 10450 10449 10450 10448 10445 10443 10442 10441 10441 10441 10443 10445 10447 10448 10450 10451 10453 10455 10457 10459 10461 10464 10467 10470 10473 10476 10478 10481
10581 10581 10582 10586 10587 10586 10583 10579 10576 10574 10571 10568 10565 10563 10560 10557 10555 10552 10549 10546 10543 10541 10539 10537 10536 10534 10532 10530 10528 10527 10525 10522 10520 10517 10514 10513 10510 10509 10510 10510 10509 10506 10500 10496 10492 10486 10481 10475 10470 10466 10461 10457 10452 10448 10446 10443 10438 10435 10433 10433 10432 10430 10429 10428 10427 10428 10428 10428 10430 10432 10433 10434 10437 10438 10441 10443 10445 10447 10450 10453 10456 10459 10462 10464 10467
10568 10566 10566 10568 10570 10571 10570 10568 10565 10562 10559 10556 10554 10551 10547 10544 10541 10538 10535 10532 10528 10526 10523 10521 10520 10518 10517 10515 10513 10511 10509 10506 10503 10501 10498 10495 10493 10491 10490 10491 10493 10492 10488 10484 10478 10470 10462 10458 10459 10458 10451 10447 10444 10437 10434 10430 10426 10423 10421 10418 10417 10415 10413 10413 10413 10414 10415 10415 10415 10416 10418 10419 10421 10423 10426 10428 10430 10432 10435 10438 10441 10444 10447 10450 10453
10558 10555 10553 10553 10552 10552 10553 10554 10553 10550 10547 10544 10541 10537 10534 10531 10527 10524 10521 10517 10514 10512 10509 10507 10505 10503 10501 10500 10498 10495 10493 10491 10487 10485 10482 10479 10476 10474 10473 10471 10472 10474 10474 10474 10470 10460 10446 10437 10441 10444 10438 10434 10433 10429 10424 10419 10415 10411 10409 10406 10404 10403 10400 10398 10398 10398 10400 10401 10401 10402 10403 10404 10405 10407 10410 10412 10414 10418 10420 10423 10427 10430 10432 10435 10439
10548 10545 10543 10541 10538 10535 10535 10536 10537 10536 10533 10531 10528 10525 10521 10517 10513 10510 10507 10503 10500 10498 10495 10493 10491 10489 10487 10485 10483 10480 10478 10475 10472 10469 10466 10463 10460 10457 10455 10453 10452 10452 10453 10456 10459 10453 10437 10426 10425 10426 10422 10419 10418 10417 10413 10407 10402 10398 10395 10394 10392 10391 10389 10386 10384 10384 10384 10386 10387 10387 10388 10388 10389 10390 10393 10396 10399 10402 10405 10408 10411 10415 10417 10421 10424
10536 10534 10532 10530 10527 10524 10521 10520 10519 10519 10518 10516 10513 10511 10508 10504 10500 10497 10493 10490 10486 10484 10482 10480 10478 10475 10473 10471 10469 10466 10463 10460 10456 10453 10450 10447 10444 10441 10437 10435 10432 10432 10432 10434 10441 10440 10424 10415 10416 10411 10407 10406 10403 10401 10398 10392 10387 10383 10380 10381 10380 10377 10376 10374 10371 10371 10370 10371 10372 10372 10371 10371 10372 10374 10377 10380 10383 10386 10389 10391 10395 10398 10402 10406 10409
10524 10522 10520 10518 10515 10513 10510 10507 10504 10503 10503 10500 10498 10496 10493 10490 10487 10483 10480 10476 10473 10471 10468 10466 10464 10462 10459 10457 10454 10452 10448 10445 10441 10438 10435 10431 10428 10425 10421 10417 10414 10412 10413 10413 10418 10422 10409 10398 10401 10400 10393 10394 10392 10387 10383 10378 10373 10369 10366 10367 10367 10364 10363 10361 10359 10357 10357 10357 10357 10356 10356 10356 10357 10359 10361 10363 10365 10368 10371 10374 10377 10381 10385 10389 10393
10512 10510 10508 10506 10504 10501 10498 10495 10491 10489 10488 10486 10483 10481 10479 10476 10473 10470 10467 10463 10459 10457 10454 10452 10450 10448 10445 10443 10440 10438 10434 10430 10427 10423 10419 10416 10413 10409 10404 10401 10398 10394 10395 10395 10396 10402 10396 10382 10381 10384 10380 10380 10379 10373 10369 10366 10360 10356 10355 10354 10352 10350 10348 10348 10347 10345 10342 10342 10342 10341 10340 10341 10342 10342 10344 10345 10347 10350 10353 10356 10360 10364 10368 10372 10377
10501 10498 10495 10493 10491 10489 10486 10482 10478 10476 10474 10472 10469 10467 10464 10461 10458 10456 10453 10450 10446 10442 10440 10438 10436 10434 10431 10428 10426 10423 10419 10416 10412 10408 10404 10400 10397 10395 10389 10385 10383 10379 10378 10379 10378 10382 10384 10373 10363 10364 10365 10365 10363 10357 10352 10352 10348 10344 10344 10340 10336 10335 10334 10333 10332 10331 10329 10327 10328 10326 10324 10324 10325 10325 10326 10328 10330 10332 10335 10338 10342 10346 10351 10355 10360
10488 10485 10482 10481 10479 10476 10473 10469 10466 10463 10460 10458 10455 10452 10449 10446 10444 10442 10439 10435 10431 10428 10426 10424 10422 10419 10416 10413 10411 10408 10404 10401 10397 10392 10389 10386 10382 10379 10375 10370 10368 10366 10362 10362 10361 10362 10367 10365 10352 10347 10350 10349 10346 10340 10335 10334 10333 10332 10331 10325 10320 10320 10320 10319 10316 10315 10313 10312 10312 10311 10307 10305 10307 10308 10308 10310 10313 10315 10317 10321 10324 10328 10333 10337 10342
10473 10471 10470 10468 10466 10463 10460 10456 10453 10450 10447 10444 10441 10439 10435 10433 10430 10428 10424 10421 10417 10415 10412 10409 10407 10405 10402 10399 10396 10393 10389 10386 10382 10378 10374 10371 10367 10363 10360 10356 10353 10352 10348 10347 10346 10345 10349 10351 10343 10334 10334 10335 10332 10324 10319 10318 10317 10315 10313 10310 10306 10305 10304 10302 10300 10299 10298 10297 10296 10294 10290 10286 10286 10289 10291 10293 10296 10298 10300 10304 10308 10311 10315 10319 10323
10456 10456 10455 10453 10451 10448 10445 10442 10439 10436 10433 10431 10428 10425 10422 10420 10417 10414 10411 10407 10404 10401 10398 10396 10393 10390 10387 10385 10382 10378 10375 10370 10366 10363 10359 10355 10352 10347 10344 10341 10338 10336 10334 10332 10331 10331 10331 10334 10332 10323 10319 10319 10319 10310 10302 10304 10305 10299 10295 10294 10292 10291 10290 10286 10282 10282 10283 10283 10281 10278 10272 10267 10266 10270 10274 10276 10278 10281 10283 10286 10290 10293 10296 10300 10304
10441 10440 10439 10437 10435 10433 10430 10427 10424 10422 10419 10417 10414 10411 10409 10407 10404 10401 10398 10394 10391 10388 10385 10382 10378 10375 10372 10369 10367 10363 10359 10356 10351 10347 10343 10339 10337 10333 10328 10326 10324 10322 10320 10318 10316 10316 10316 10316 10316 10313 10307 10303 10302 10295 10287 10288 10291 10286 10282 10282 10279 10274 10273 10272 10268 10265 10265 10266 10265 10261 10256 10251 10250 10253 10257 10259 10261 10264 10267 10269 10272 10276 10278 10281 10284
10425 10423 10422 10420 10418 10416 10414 10412 10409 10407 10404 10402 10399 10397 10395 10393 10390 10388 10385 10381 10378 10374 10370 10367 10363 10360 10356 10353 10351 10346 10342 10339 10335 10330 10327 10324 10320 10317 10314 10312 10311 10308 10306 10304 10302 10301 10300 10300 10299 10298 10295 10289 10283 10279 10274 10271 10272 10269 10266 10270 10271 10263 10256 10255 10253 10249 10248 10248 10245 10243 10240 10236 10236 10238 10239 10242 10245 10247 10249 10252 10254 10258 10260 10262 10265
10408 10407 10405 10403 10401 10399 10398 10396 10394 10392 10389 10387 10384 10382 10380 10379 10376 10374 10371 10367 10364 10359 10355 10351 10347 10343 10340 10336 10333 10330 10326 10322 10319 10315 10312 10308 10305 10302 10300 10298 10296 10294 10291 10289 10287 10285 10284 10284 10283 10280 10279 10274 10265 10262 10260 10255 10254 10254 10249 10248 10255 10253 10245 10242 10238 10231 10228 10229 10227 10226 10225 10220 10218 10221 10222 10225 10229 10229 10229 10233 10236 10239 10242 10242 10246
10393 10391 10389 10386 10384 10382 10381 10378 10376 10375 10373 10371 10369 10367 10366 10364 10361 10359 10356 10352 10348 10344 10339 10335 10331 10327 10324 10320 10316 10313 10310 10306 10302 10299 10296 10293 10291 10288 10286 10284 10282 10279 10277 10274 10273 10271 10269 10269 10268 10264 10262 10258 10249 10246 10246 10240 10235 10238 10235 10230 10232 10233 10228 10228 10227 10213 10200 10203 10208 10210 10210 10204 10197 10200 10205 10207 10210 10209 10209 10215 10218 10220 10223 10224 10227
10378 10376 10373 10370 10368 10365 10363 10361 10359 10357 10356 10355 10354 10353 10351 10349 10345 10342 10339 10335 10331 10327 10322 10318 10315 10312 10308 10305 10300 10296 10293 10290 10287 10284 10281 10278 10277 10274 10272 10270 10267 10263 10261 10258 10256 10255 10255 10254 10252 10247 10245 10242 10234 10229 10229 10226 10220 10220 10219 10214 10214 10213 10208 10209 10213 10200 10177 10172 10183 10192 10193 10185 10177 10181 10189 10189 10189 10190 10191 10196 10200 10202 10204 10205 10207
10363 10360 10357 10354 10351 10347 10345 10344 10342 10341 10340 10340 10340 10339 10335 10332 10329 10325 10322 10319 10315 10311 10307 10302 10299 10297 10293 10289 10285 10281 10277 10275 10272 10269 10266 10264 10262 10260 10258 10255 10252 10249 10245 10243 10241 10239 10239 10239 10235 10230 10228 10227 10221 10213 10210 10209 10206 10204 10201 10198 10196 10194 10192 10190 10193 10190 10167 10148 10157 10174 10178 10168 10157 10163 10176 10174 10169 10170 10173 10178 10182 10183 10185 10185 10187
10348 10345 10342 10338 10334 10331 10329 10327 10326 10325 10325 10326 10324 10322 10318 10315 10312 10308 10305 10302 10298 10294 10291 10288 10285 10281 10278 10274 10270 10266 10263 10261 10259 10255 10253 10251 10248 10246 10244 10240 10238 10235 10231 10228 10226 10225 10225 10224 10220 10215 10210 10210 10208 10200 10194 10192 10191 10190 10187 10184 10180 10175 10176 10174 10172 10175 10162 10136 10135 10157 10168 10157 10139 10144 10161 10158 10148 10152 10158 10160 10163 10165 10166 10166 10167
10332 10329 10327 10323 10319 10316 10312 10310 10310 10310 10310 10309 10307 10304 10301 10298 10295 10292 10289 10285 10282 10279 10276 10273 10270 10266 10263 10260 10256 10252 10249 10247 10245 10242 10240 10238 10235 10232 10230 10226 10223 10219 10216 10212 10209 10209 10210 10207 10206 10203 10195 10192 10193 10188 10180 10176 10175 10176 10175 10173 10169 10161 10159 10159 10156 10157 10149 10126 10120 10138 10157 10150 10124 10124 10143 10139 10129 10138 10144 10140 10143 10147 10147 10147 10149
10315 10312 10309 10306 10302 10298 10294 10294 10295 10294 10293 10291 10290 10288 10286 10283 10280 10276 10273 10270 10267 10265 10262 10259 10256 10252 10249 10246 10242 10239 10236 10233 10231 10228 10226 10224 10222 10218 10214 10211 10208 10204 10200 10196 10192 10192 10192 10189 10189 10189 10181 10176 10175 10172 10167 10160 10156 10157 10157 10157 10156 10148 10143 10143 10141 10137 10128 10114 10105 10114 10137 10140 10112 10105 10125 10123 10113 10123 10126 10120 10123 10128 10128 10128 10131
10299 10296 10293 10290 10286 10281 10279 10280 10280 10279 10277 10276 10275 10273 10270 10268 10266 10262 10258 10255 10253 10251 10248 10244 10241 10238 10235 10233 10228 10225 10222 10219 10216 10214 10213 10211 10208 10205 10201 10196 10193 10189 10184 10180 10177 10175 10173 10170 10170 10169 10164 10159 10155 10151 10148 10143 10138 10135 10134 10136 10136 10128 10126 10128 10125 10118 10108 10099 10090 10088 10110 10125 10102 10090 10108 10107 10097 10106 10108 10102 10105 10108 10109 10112 10114
10285 10283 10280 10276 10272 10268 10267 10268 10267 10265 10264 10262 10260 10258 10256 10254 10252 10248 10244 10241 10239 10237 10233 10229 10226 10223 10221 10218 10215 10212 10208 10205 10202 10200 10199 10198 10195 10191 10187 10182 10179 10175 10170 10166 10163 10160 10157 10155 10153 10151 10148 10144 10139 10134 10128 10123 10120 10115 10113 10117 10114 10105 10105 10109 10110 10106 10097 10088 10077 10067 10085 10105 10089 10078 10093 10092 10083 10090 10090 10084 10087 10089 10092 10097 10099
10272 10270 10267 10262 10257 10254 10254 10254 10253 10251 10249 10247 10245 10243 10241 10239 10238 10235 10231 10228 10225 10222 10218 10215 10211 10208 10206 10203 10201 10199 10195 10191 10188 10186 10184 10183 10182 10178 10174 10170 10165 10161 10156 10152 10149 10145 10142 10140 10138 10135 10133 10129 10125 10121 10113 10105 10101 10096 10093 10098 10096 10088 10088 10090 10091 10092 10089 10079 10064 10053 10067 10086 10074 10065 10076 10076 10070 10074 10072 10067 10070 10073 10076 10082 10086
10258 10255 10252 10248 10244 10241 10240 10239 10238 10236 10235 10233 10230 10228 10226 10225 10224 10221 10217 10215 10212 10209 10205 10201 10198 10194 10191 10188 10186 10184 10181 10177 10174 10172 10170 10168 10167 10164 10160 10157 10153 10147 10143 10140 10136 10132 10128 10126 10123 10119 10117 10114 10110 10107 10101 10091 10084 10077 10073 10074 10073 10069 10070 10072 10071 10073 10075 10067 10049 10039 10053 10069 10060 10050 10057 10061 10058 10057 10054 10053 10055 10056 10061 10069 10073
10243 10240 10238 10235 10231 10228 10227 10226 10224 10222 10221 10219 10217 10215 10213 10212 10209 10206 10203 10201 10198 10195 10192 10188 10184 10180 10176 10174 10171 10169 10166 10163 10160 10157 10155 10153 10153 10150 10146 10144 10140 10135 10131 10127 10123 10119 10116 10113 10110 10105 10101 10098 10094 10092 10088 10080 10071 10063 10054 10050 10050 10048 10050 10054 10051 10052 10056 10052 10035 10025 10037 10051 10045 10034 10037 10046 10048 10042 10036 10038 10040 10041 10048 10057 10061